TimeEST,TemperatureF,Dew PointF,Humidity,Sea Level PressureIn,VisibilityMPH,Wind Direction,Wind SpeedMPH,Gust SpeedMPH,PrecipitationIn,Events,Conditions,WindDirDegrees,DateUTC
12:53 AM,41.0,30.9,67,29.99,10.0,WNW,6.9,-,N/A,,Clear,300,2013-03-02 05:53:00
1:53 AM,37.9,30.9,76,29.99,10.0,West,5.8,-,N/A,,Clear,270,2013-03-02 06:53:00
2:53 AM,37.0,30.0,76,29.98,10.0,West,6.9,-,N/A,,Clear,270,2013-03-02 07:53:00
3:53 AM,36.0,30.0,79,29.97,10.0,West,4.6,-,N/A,,Clear,260,2013-03-02 08:53:00
4:53 AM,35.1,28.9,78,29.97,10.0,WSW,3.5,-,N/A,,Clear,250,2013-03-02 09:53:00
5:53 AM,34.0,28.9,82,29.97,10.0,West,6.9,-,N/A,,Clear,260,2013-03-02 10:53:00
6:53 AM,34.0,28.9,82,29.98,10.0,WSW,8.1,-,N/A,,Clear,250,2013-03-02 11:53:00
7:53 AM,37.9,32.0,79,29.98,10.0,West,9.2,-,N/A,,Clear,270,2013-03-02 12:53:00
8:53 AM,43.0,32.0,65,29.97,10.0,West,13.8,-,N/A,,Clear,270,2013-03-02 13:53:00
9:53 AM,46.0,30.0,54,29.96,10.0,West,16.1,23.0,N/A,,Partly Cloudy,280,2013-03-02 14:53:00
10:53 AM,48.0,27.0,44,29.95,10.0,West,21.9,26.5,N/A,,Scattered Clouds,280,2013-03-02 15:53:00
11:53 AM,48.0,26.1,42,29.95,10.0,West,20.7,27.6,N/A,,Overcast,260,2013-03-02 16:53:00
12:53 PM,48.0,26.1,42,29.94,10.0,West,19.6,31.1,N/A,,Mostly Cloudy,280,2013-03-02 17:53:00
1:53 PM,48.0,26.1,42,29.92,10.0,WNW,15.0,25.3,N/A,,Mostly Cloudy,290,2013-03-02 18:53:00
2:53 PM,48.0,27.0,44,29.91,10.0,West,17.3,-,N/A,,Overcast,280,2013-03-02 19:53:00
3:53 PM,48.0,27.0,44,29.91,10.0,WNW,13.8,23.0,N/A,,Overcast,290,2013-03-02 20:53:00
4:53 PM,48.0,28.0,46,29.92,10.0,WNW,10.4,20.7,N/A,,Overcast,290,2013-03-02 21:53:00
5:53 PM,46.0,28.0,50,29.94,10.0,WNW,13.8,-,N/A,,Overcast,290,2013-03-02 22:53:00
6:53 PM,45.0,28.0,52,29.96,10.0,West,10.4,-,N/A,,Overcast,270,2013-03-02 23:53:00
7:53 PM,44.1,28.0,53,29.98,10.0,West,8.1,-,N/A,,Mostly Cloudy,270,2013-03-03 00:53:00
8:53 PM,41.0,28.9,62,29.99,10.0,West,8.1,-,N/A,,Scattered Clouds,270,2013-03-03 01:53:00
9:53 PM,37.9,28.9,70,30.00,10.0,West,8.1,-,N/A,,Partly Cloudy,260,2013-03-03 02:53:00
10:53 PM,37.9,30.0,73,30.00,10.0,West,8.1,-,N/A,,Partly Cloudy,270,2013-03-03 03:53:00
11:53 PM,37.9,28.0,68,29.99,10.0,WNW,6.9,-,N/A,,Partly Cloudy,290,2013-03-03 04:53:00